Regional Weather Roundup
Issued by NWS

Home | Current Version | Previous Version | Text Only | Print | Product List | Glossary Off
Versions: 1 2 3 4 5 6 7 8 9 10 11 12 13 14 15 16 17 18 19 20 21 22 23 24 25 26 27 28 29 30 31 32 33 34 35 36 37 38 39 40 41 42 43 44 45 46 47 48 49 50

000
ASUS43 KOAX 132002
RWRNE

WEATHER ROUNDUP FOR NEBRASKA
NATIONAL WEATHER SERVICE OMAHA NE
300 PM CDT SUN JUL 13 2014

NOTES: SATELLITE DATA IS BEING USED TO AUGMENT CLOUD COVER ABOVE
       12000 FEET.
       "FAIR" INDICATES FEW OR NO CLOUDS BELOW 12,000 FEET WITH NO
       SIGNIFICANT WEATHER AND/OR OBSTRUCTIONS TO VISIBILITY.

  * THESE STATIONS DO NOT REPORT WEATHER SUCH AS RAIN...SNOW OR FOG.

NEZ001>004-019>022-054>056-132100-
NEBRASKA PANHANDLE

CITY           SKY/WX    TMP DP  RH WIND       PRES   REMARKS
SCOTTSBLUFF    MOSUNNY   77  58  51 NE8       30.21F
ALLIANCE       SUNNY     85  46  25 VRB5      30.19F
CHADRON        MOSUNNY   87  55  33 VRB5      30.13F
KIMBALL        PTSUNNY   79  56  45 SE5       30.25F
SIDNEY         CLOUDY    83  56  39 VRB6      30.22F THUNDER
$$

NEZ057>060-069>072-079>082-132100-
SOUTHWEST NEBRASKA

CITY           SKY/WX    TMP DP  RH WIND       PRES   REMARKS
NORTH PLATTE   MOSUNNY   88  56  33 NW10      30.12F
IMPERIAL       TSTM      76  65  68 NW12      30.18S
LEXINGTON      SUNNY     87  58  37 CALM      30.12F
MCCOOK         MOSUNNY   89  57  33 N7        30.13F
OGALLALA       MOSUNNY   84  53  34 NE12      30.16F
$$

NEZ005>010-023>029-035>040-094-132100-
NORTH CENTRAL NEBRASKA

CITY           SKY/WX    TMP DP  RH WIND       PRES   REMARKS
VALENTINE      SUNNY     84  52  33 VRB7      30.12F
AINSWORTH      MOSUNNY   82  48  30 NW10      30.12F
BROKEN BOW     MOSUNNY   85  62  46 N7        30.10F
O`NEILL        PTSUNNY   84  54  36 NW9       30.08F
ORD            MOSUNNY   85  67  54 NW12      30.06F
THEDFORD       SUNNY     86  55  34 NW7       30.14F
$$

NEZ041-046>049-061>064-073>077-083>087-132100-
SOUTH CENTRAL NEBRASKA

CITY           SKY/WX    TMP DP  RH WIND       PRES   REMARKS
GRAND ISLAND   MOSUNNY   88  63  43 W10       30.08F
AURORA         PTSUNNY   85  64  49 W5        30.07F
HASTINGS       SUNNY     86  59  39 N6        30.09F
HEBRON         SUNNY     88  63  43 NW7       30.06F
HOLDREGE       MOSUNNY   84  56  38 CALM      30.12F
KEARNEY *      MOSUNNY   88  57  35 W8        30.11F
YORK           CLOUDY    82  64  54 W7        30.06F
$$

NEZ011>018-030>034-042>045-132100-
NORTHEAST NEBRASKA

CITY           SKY/WX    TMP DP  RH WIND       PRES   REMARKS
NORFOLK        TSTM      71  64  78 N13G36    30.04S
ALBION         PTSUNNY   82  65  57 CALM      30.05F
BLAIR          MOSUNNY   86  31  14 W8        30.01F
TEKAMAH        MOSUNNY   87  65  47 NW7       30.00S
WAYNE          PTSUNNY   82  68  61 N8        30.03F
$$

NEZ050>053-065>068-078-088>093-132100-
SOUTHEAST NEBRASKA

CITY           SKY/WX    TMP DP  RH WIND       PRES   REMARKS
LINCOLN        MOSUNNY   90  60  36 CALM      30.03F
OMAHA EPPLEY   PTSUNNY   89  67  47 W9        30.00F HX  92
BEATRICE       MOSUNNY   83  67  58 W5        30.03F
FALLS CITY     SUNNY     86  70  58 NW7       30.01F HX  90
NEBRASKA CITY  MOSUNNY   85  67  55 NW5       30.02F
PLATTSMOUTH    SUNNY     87  62  43 NW6       30.01F
$$

NEZ044-045-051>053-067-132100-
OMAHA AREA

CITY           SKY/WX    TMP DP  RH WIND       PRES   REMARKS
OMAHA EPPLEY   PTSUNNY   89  67  47 W9        30.00F HX  92
BLAIR          MOSUNNY   86  31  14 W8        30.01F
MILLARD        MOSUNNY   85  67  54 NW10      30.01S
OFFUTT AFB     MOSUNNY   89  67  48 VRB7      30.00F HX  91
PLATTSMOUTH    SUNNY     87  62  43 NW6       30.01F
WAHOO          MOCLDY    87  64  46 NW3       30.02S
$$


USA.gov is the U.S. government's official web portal to all federal, state and local government web resources and services.